Weather History for KBAX - January, 2013

Change the Weather History Date:

Thursday, January 17, 2013

  Actual Average (KP58) Record (KP58)
Temperature  
Mean Temperature 22 °F -  
Max Temperature 31 °F 25 °F 41 °F (2015)
Min Temperature 12 °F 15 °F -4 °F (1997)
Degree Days  
Heating Degree Days 43    
Moisture  
Dew Point 15 °F    
Average Humidity 76    
Maximum Humidity 92    
Minimum Humidity 55    
Precipitation  
Precipitation 0.00 in - - ()
Sea Level Pressure  
Sea Level Pressure 30.14 in    
Wind  
Wind Speed 9 mph (NNW)    
Max Wind Speed 18 mph    
Max Gust Speed 28 mph    
Visibility 9 miles    
Events Snow    
Averages and records for this station are not official NWS values.
T = Trace of Precipitation, MM = Missing Value Source: NWS Daily Summary

Daily Weather History Graph

Daily Weather History Graph

Search for Another Location

Airport or City:

Trip Planner

Search our weather history database for the weather conditions in past years. The results will help you decide how hot, cold, wet, or windy it might be!

Date:

Astronomy

Jan. 17, 2013 Rise Set
Actual Time 8:01 AM EST 5:23 PM EST
Civil Twilight 7:29 AM EST 5:54 PM EST
Nautical Twilight 6:54 AM EST 6:30 PM EST
Astronomical Twilight 6:20 AM EST 7:04 PM EST
Moon 10:53 AM EST (1/17) No Moon Set
Length of Visible Light 10h 25m
Length of Day
9h 21m
Waxing Crescent, 37% of the Moon is Illuminated
Jan 17
Waxing Crescent
Jan 18
First Quarter
Jan 26
Full
Feb 3
Last Quarter
Feb 10
New

Hourly Weather History & Observations

Time (EST) Temp. Windchill Dew Point Humidity Pressure Visibility Wind Dir Wind Speed Gust Speed Precip Events Conditions
12:13 AM 30.7 °F 21.4 °F 28.4 °F 91% 29.89 in 10.0 mi West 11.5 mph 17.3 mph N/A   Overcast
12:34 AM 30.9 °F 22.8 °F 28.8 °F 92% 29.90 in 10.0 mi West 9.2 mph 19.6 mph N/A   Overcast
12:54 AM 31.1 °F 22.4 °F 28.4 °F 90% 29.92 in 10.0 mi WNW 10.4 mph 17.3 mph N/A   Overcast
1:13 AM 31.1 °F 23.7 °F 28.0 °F 88% 29.93 in 10.0 mi WNW 8.1 mph 11.5 mph N/A   Overcast
1:34 AM 30.9 °F 23.5 °F 27.5 °F 87% 29.95 in 10.0 mi WNW 8.1 mph 16.1 mph N/A   Overcast
1:54 AM 30.7 °F 20.4 °F 27.3 °F 87% 29.96 in 10.0 mi NNW 13.8 mph 20.7 mph N/A   Overcast
2:14 AM 29.3 °F 20.8 °F 24.4 °F 82% 29.98 in 10.0 mi NNW 9.2 mph - N/A   Overcast
2:34 AM 28.9 °F 21.1 °F 23.2 °F 79% 29.99 in 10.0 mi North 8.1 mph - N/A   Overcast
2:54 AM 28.2 °F 18.3 °F 21.4 °F 76% 30.00 in 10.0 mi North 11.5 mph 16.1 mph N/A   Overcast
3:14 AM 27.5 °F 18.0 °F 21.0 °F 77% 30.00 in 10.0 mi North 10.4 mph - N/A   Overcast
3:34 AM 27.0 °F 18.0 °F 20.1 °F 75% 30.01 in 10.0 mi North 9.2 mph - N/A   Overcast
3:54 AM 26.4 °F 17.3 °F 19.8 °F 76% 30.03 in 10.0 mi North 9.2 mph - N/A   Overcast
4:34 AM 25.5 °F 16.9 °F 18.5 °F 75% 30.05 in 10.0 mi North 8.1 mph - N/A   Overcast
4:54 AM 25.2 °F 18.3 °F 18.1 °F 75% 30.06 in 10.0 mi North 5.8 mph - N/A   Overcast
5:14 AM 24.8 °F 16.9 °F 17.4 °F 74% 30.07 in 10.0 mi North 6.9 mph - N/A   Overcast
5:34 AM 24.6 °F 16.7 °F 16.7 °F 72% 30.08 in 10.0 mi North 6.9 mph - N/A   Overcast
5:54 AM 24.4 °F 17.5 °F 17.2 °F 74% 30.10 in 10.0 mi North 5.8 mph - N/A   Overcast
6:14 AM 24.3 °F 15.4 °F 16.9 °F 73% 30.10 in 10.0 mi North 8.1 mph - N/A   Overcast
6:34 AM 23.9 °F 13.5 °F 16.9 °F 75% 30.11 in 10.0 mi North 10.4 mph - N/A   Overcast
6:54 AM 23.0 °F 14.7 °F 16.5 °F 76% 30.12 in 10.0 mi North 6.9 mph - N/A Snow Light Snow
7:14 AM 23.0 °F 13.1 °F 16.7 °F 77% 30.13 in 10.0 mi NNE 9.2 mph - N/A Snow Light Snow
7:34 AM 22.1 °F 13.7 °F 15.4 °F 76% 30.14 in 10.0 mi North 6.9 mph - N/A   Overcast
7:54 AM 21.9 °F 12.5 °F 15.3 °F 76% 30.14 in 10.0 mi NNE 8.1 mph - N/A   Overcast
8:14 AM 21.7 °F 13.2 °F 15.1 °F 76% 30.15 in 10.0 mi North 6.9 mph - N/A   Overcast
8:34 AM 21.6 °F 15.3 °F 14.9 °F 76% 30.16 in 10.0 mi North 4.6 mph - N/A Snow Light Snow
8:54 AM 21.6 °F 14.0 °F 15.1 °F 76% 30.16 in 10.0 mi North 5.8 mph - N/A   Overcast
9:14 AM 21.7 °F 13.2 °F 15.6 °F 77% 30.17 in 10.0 mi North 6.9 mph - N/A Snow Light Snow
9:34 AM 21.9 °F 13.4 °F 16.2 °F 78% 30.18 in 10.0 mi North 6.9 mph - N/A Snow Light Snow
9:54 AM 21.7 °F 14.3 °F 15.8 °F 78% 30.18 in 4.0 mi North 5.8 mph - N/A Snow Light Snow
10:14 AM 21.7 °F 14.3 °F 15.8 °F 78% 30.19 in 10.0 mi North 5.8 mph - N/A Snow Light Snow
10:34 AM 21.6 °F 12.1 °F 15.8 °F 78% 30.18 in 5.0 mi North 8.1 mph - N/A Snow Light Snow
10:55 AM 21.7 °F 13.2 °F 15.6 °F 77% 30.18 in 10.0 mi North 6.9 mph - N/A Snow Light Snow
11:14 AM 22.1 °F 11.3 °F 16.0 °F 77% 30.18 in 7.0 mi North 10.4 mph - N/A Snow Light Snow
11:34 AM 22.1 °F 12.0 °F 16.2 °F 78% 30.18 in 7.0 mi NNW 9.2 mph - N/A Snow Light Snow
11:55 AM 21.6 °F 13.0 °F 16.2 °F 80% 30.17 in 5.0 mi NNW 6.9 mph - N/A Snow Light Snow
12:14 PM 22.1 °F 12.8 °F 17.2 °F 82% 30.16 in 3.0 mi NNW 8.1 mph - N/A Snow Light Snow
12:34 PM 21.9 °F 13.4 °F 16.5 °F 80% 30.16 in 7.0 mi NNW 6.9 mph - N/A Snow Light Snow
12:55 PM 22.1 °F 12.8 °F 16.9 °F 80% 30.15 in 7.0 mi North 8.1 mph - N/A Snow Light Snow
1:14 PM 22.1 °F 12.0 °F 16.7 °F 80% 30.14 in 3.0 mi NNW 9.2 mph - N/A Snow Light Snow
1:34 PM 21.2 °F 12.6 °F 16.2 °F 81% 30.14 in 3.0 mi North 6.9 mph - N/A Snow Light Snow
1:55 PM 21.2 °F 10.1 °F 16.0 °F 80% 30.14 in 7.0 mi North 10.4 mph - N/A Snow Light Snow
2:14 PM 21.0 °F 10.6 °F 16.0 °F 81% 30.14 in 5.0 mi North 9.2 mph - N/A Snow Light Snow
2:34 PM 20.8 °F 10.4 °F 16.3 °F 83% 30.14 in 7.0 mi NNW 9.2 mph - N/A Snow Light Snow
2:55 PM 20.7 °F 11.0 °F 15.8 °F 81% 30.14 in 5.0 mi NNW 8.1 mph - N/A Snow Light Snow
3:14 PM 20.8 °F 12.1 °F 16.3 °F 83% 30.13 in 5.0 mi NW 6.9 mph - N/A Snow Light Snow
3:34 PM 21.0 °F 11.4 °F 15.8 °F 80% 30.13 in 10.0 mi NW 8.1 mph - N/A   Mostly Cloudy
3:55 PM 20.3 °F 10.6 °F 14.9 °F 80% 30.13 in 10.0 mi NW 8.1 mph - N/A   Mostly Cloudy
4:14 PM 19.9 °F 9.3 °F 14.4 °F 79% 30.13 in 10.0 mi NW 9.2 mph - N/A   Overcast
4:34 PM 19.9 °F 10.1 °F 14.9 °F 81% 30.14 in 10.0 mi WNW 8.1 mph - N/A   Overcast
4:55 PM 19.2 °F 11.3 °F 14.0 °F 80% 30.14 in 10.0 mi West 5.8 mph - N/A   Mostly Cloudy
5:14 PM 18.7 °F 9.5 °F 14.0 °F 82% 30.15 in 10.0 mi West 6.9 mph - N/A   Mostly Cloudy
5:35 PM 18.1 °F 8.9 °F 13.8 °F 83% 30.16 in 10.0 mi WNW 6.9 mph - N/A Snow Light Snow
5:54 PM 17.6 °F 8.2 °F 14.2 °F 86% 30.17 in 10.0 mi WNW 6.9 mph - N/A   Mostly Cloudy
6:14 PM 18.5 °F 6.1 °F 14.4 °F 84% 30.18 in 10.0 mi WNW 11.5 mph 19.6 mph N/A   Mostly Cloudy
6:35 PM 18.5 °F 2.9 °F 11.1 °F 73% 30.19 in 10.0 mi WNW 18.4 mph 26.5 mph N/A   Mostly Cloudy
6:54 PM 18.1 °F 2.4 °F 9.0 °F 67% 30.20 in 10.0 mi WNW 18.4 mph 24.2 mph N/A   Mostly Cloudy
7:14 PM 16.9 °F 1.7 °F 4.5 °F 58% 30.21 in 10.0 mi WNW 16.1 mph 26.5 mph N/A   Scattered Clouds
7:35 PM 16.5 °F 0.3 °F 3.0 °F 55% 30.23 in 10.0 mi WNW 18.4 mph 25.3 mph N/A   Mostly Cloudy
7:54 PM 15.8 °F 0.3 °F 4.1 °F 60% 30.24 in 10.0 mi WNW 16.1 mph 27.6 mph N/A   Overcast
8:15 PM 15.8 °F 0.9 °F 3.7 °F 59% 30.25 in 10.0 mi WNW 15.0 mph 21.9 mph N/A   Mostly Cloudy
8:34 PM 15.6 °F 1.2 °F 4.8 °F 62% 30.25 in 10.0 mi WNW 13.8 mph 18.4 mph N/A   Mostly Cloudy
8:54 PM 15.8 °F 2.1 °F 5.5 °F 64% 30.25 in 10.0 mi WNW 12.7 mph 18.4 mph N/A   Overcast
9:15 PM 15.8 °F 2.7 °F 5.7 °F 64% 30.26 in 10.0 mi WNW 11.5 mph 21.9 mph N/A   Overcast
9:55 PM 15.3 °F 2.8 °F 5.4 °F 65% 30.26 in 10.0 mi WNW 10.4 mph 18.4 mph N/A   Overcast
10:14 PM 14.0 °F 1.2 °F 5.0 °F 67% 30.27 in 10.0 mi WNW 10.4 mph 18.4 mph N/A   Mostly Cloudy
10:34 PM 13.8 °F 1.0 °F 5.0 °F 68% 30.27 in 10.0 mi WNW 10.4 mph 17.3 mph N/A   Scattered Clouds
10:54 PM 13.8 °F 1.0 °F 5.0 °F 68% 30.27 in 10.0 mi WNW 10.4 mph 17.3 mph N/A   Scattered Clouds
11:13 PM 13.1 °F 0.1 °F 5.0 °F 70% 30.27 in 10.0 mi WNW 10.4 mph - N/A   Clear
11:34 PM 13.1 °F 0.9 °F 4.5 °F 68% 30.27 in 10.0 mi WNW 9.2 mph - N/A   Clear
11:54 PM 12.7 °F 1.4 °F 4.6 °F 70% 30.28 in 10.0 mi WNW 8.1 mph - N/A   Clear